Regional Weather Roundup
Issued by NWS Burlington, VT

Home | Current Version | Previous Version | Text Only | Print | Product List | Glossary On
Versions: 1 2 3 4 5 6 7 8 9 10 11 12 13 14 15 16 17 18 19 20 21 22 23 24 25 26 27 28 29 30 31 32 33 34 35 36 37 38 39 40 41 42 43 44 45 46 47 48 49 50
000
ASUS41 KBTV 050910
RWRBTV
VERMONT REGIONAL WEATHER ROUNDUP
NATIONAL WEATHER SERVICE BURLINGTON VT
400 AM EST THU MAR 05 2015

NOTE: "FAIR" INDICATES FEW OR NO CLOUDS BELOW 12,000 FEET WITH NO
SIGNIFICANT WEATHER AND/OR OBSTRUCTIONS TO VISIBILITY.

* THESE REPORTS ARE NOT UNDER NWS QUALITY CONTROL AND/OR DO NOT
  REPORT WEATHER SUCH AS PRECIPITATION AND FOG.

VTZ001>019-051000-
_____VERMONT_____


CITY           SKY/WX    TMP DP  RH WIND       PRES   REMARKS
BURLINGTON     CLOUDY    22   4  46 NW12      29.99R WCI  10
MONTPELIER     CLOUDY    20   1  43 NW12G24   29.93R WCI   8
MORRISVILLE    CLOUDY    21   3  45 VRB7G17   29.96R
ST. JOHNSBURY*   N/A     24   6  46 MISG      29.89R
LYNDONVILLE*   FAIR      21   1  42 W14G22    29.89R WCI   8
MIDDLEBURY*    CLOUDY    25   3  38 NW10G16   29.96R WCI  15
RUTLAND*       CLOUDY    25   7  46 NW13G20   29.93R WCI  13
SPRINGFIELD    CLOUDY    28  11  48 VRB6      29.92R
HIGHGATE*      FAIR      20   3  47 W6G21     29.99R
NEWPORT*       FAIR      18   3  51 W16G23    29.91R WCI   4
BENNINGTON     CLOUDY    28  13  53 N14G22    29.93R WCI  17
SUTTON*          N/A     18 N/A N/A MISG        N/A

_____LAKE CHAMPLAIN_____


CITY           SKY/WX    TMP DP  RH WIND       PRES   REMARKS

$$

NYZ007-026>031-035-052-083-051000-
_____NORTHERN NEW YORK_____


CITY           SKY/WX    TMP DP  RH WIND       PRES   REMARKS
PLATTSBURGH    CLOUDY    21   2  43 NW10      30.01R WCI  10
SARANAC LAKE   CLOUDY    13   0  56 W6        29.89R
MASSENA        PTSUNNY   15   2  56 W13       30.08R WCI   1
OGDENSBURG*    SUNNY     16   3  57 NW12      30.10R WCI   3
POTSDAM*       SUNNY     16   3  57 NW7       30.07R
WATERTOWN      CLOUDY    18   5  57 W12       30.11R WCI   5
FT DRUM        CLOUDY    16   1  50 W8        30.06R
ALBANY         CLOUDY    28  12  51 NW14G22   30.00R WCI  17
GLENS FALLS    CLOUDY    27   7  42 NW15G22   29.99R WCI  15

$$
NHZ002-005-011-051000-
_____NEW HAMPSHIRE_____


CITY           SKY/WX    TMP DP  RH WIND       PRES   REMARKS
LEBANON        CLOUDY    29  11  47 NW8G21    29.90R
KEENE          CLOUDY    34  16  47 NW9G17    29.89R
MT WASHINGTON  PTSUNNY   -2  -9  71 NW75G81     N/A  WCI -39
PLYMOUTH       FAIR      30  15  52 NW15G21   29.85R WCI  19
WHITEFIELD     CLOUDY    24   5  44 W15G21    29.84R WCI  11

$$

_____REGIONAL QUEBEC LOCATIONS_____


CITY           SKY/WX    TMP DP  RH WIND       PRES   REMARKS
MONTREAL       PTSUNNY   16   0  48 NW10G20   30.03R WCI   3
QUEBEC CITY    MOSUNNY    9  -6  52 NW9       29.93R
SHERBROOKE     FLURRIES  16  10  79 W15       29.90R WCI   1

_____REGIONAL ONTARIO LOCATIONS_____


CITY           SKY/WX    TMP DP  RH WIND       PRES   REMARKS
OTTAWA         PTSUNNY   10  -2  56 NW17      30.10R WCI  -7

______KEY______
VSB  - VISIBILITY IN MILES
WCI  - WIND CHILL INDEX
HX   - HEAT INDEX
$$
NNNN



USA.gov is the U.S. government's official web portal to all federal, state and local government web resources and services.